START_TIME,STEP,MOV.,EG07,t_acc.,EG08,t_acc.,EG09,t_acc.,EB05,t_acc.,EBP05,t_acc.
1981-08-24 00:00:23.930 ,6,0,0.,1.2,0.,1.2,0.,1.2,,0.0,,0.0
1981-08-24 00:00:25.130 ,6,0,0.,1.2,0.,1.2,0.,1.2,,0.0,,0.0
1981-08-24 00:00:26.330 ,6,0,1.,1.2,1.,1.2,1.,1.2,,0.0,,0.0
1981-08-24 00:00:27.530 ,6,0,0.,1.2,0.,1.2,0.,1.2,,0.0,,0.0
1981-08-24 00:00:28.730 ,6,0,2.,1.2,0.,1.2,0.,1.2,,0.0,,0.0
1981-08-24 00:00:29.930 ,6,0,0.,1.2,0.,1.2,0.,1.2,,0.0,,0.0
1981-08-24 00:00:31.130 ,6,0,0.,1.2,0.,1.2,0.,1.2,,0.0,,0.0
1981-08-24 00:00:32.330 ,6,0,1.,1.2,0.,1.2,0.,1.2,,0.0,,0.0
1981-08-24 00:00:33.530 ,6,0,1.,1.2,0.,1.2,0.,1.2,,0.0,,0.0
1981-08-24 00:00:34.730 ,6,0,0.,1.2,0.,1.2,0.,1.2,,0.0,,0.0
1981-08-24 00:00:35.930 ,6,0,0.,1.2,0.,1.2,0.,1.2,,0.0,,0.0
1981-08-24 00:00:37.130 ,6,0,0.,1.2,0.,1.2,0.,1.2,,0.0,,0.0
1981-08-24 00:00:38.330 ,6,0,0.,1.2,0.,1.2,0.,1.2,,0.0,,0.0
1981-08-24 00:00:39.530 ,6,0,0.,1.2,0.,1.2,0.,1.2,,0.0,,0.0
1981-08-24 00:00:40.730 ,6,0,0.,1.2,0.,1.2,0.,1.2,,0.0,,0.0
1981-08-24 00:00:41.930 ,6,0,0.,1.2,0.,1.2,0.,1.2,,0.0,,0.0
1981-08-24 00:00:43.130 ,6,0,1.,1.2,1.,1.2,0.,1.2,,0.0,,0.0
1981-08-24 00:00:44.330 ,6,0,0.,1.2,0.,1.2,0.,1.2,,0.0,,0.0
1981-08-24 00:00:45.530 ,6,0,1.,1.2,1.,1.2,0.,1.2,,0.0,,0.0
1981-08-24 00:00:46.730 ,6,0,0.,1.2,0.,1.2,0.,1.2,,0.0,,0.0
1981-08-24 00:00:47.930 ,7,0,0.,1.2,0.,1.2,0.,1.2,,0.0,,0.0
1981-08-24 00:00:49.130 ,7,0,0.,1.2,0.,1.2,0.,1.2,,0.0,,0.0
1981-08-24 00:00:50.330 ,7,0,0.,1.2,0.,1.2,0.,1.2,,0.0,,0.0
1981-08-24 00:00:51.530 ,7,0,1.,1.2,0.,1.2,0.,1.2,,0.0,,0.0
1981-08-24 00:00:52.730 ,7,0,1.,1.2,1.,1.2,0.,1.2,,0.0,,0.0
1981-08-24 00:00:53.930 ,7,0,1.,1.2,0.,1.2,0.,1.2,,0.0,,0.0
1981-08-24 00:00:55.130 ,7,0,0.,1.2,0.,1.2,0.,1.2,,0.0,,0.0
1981-08-24 00:00:56.330 ,7,0,0.,1.2,0.,1.2,0.,1.2,,0.0,,0.0
1981-08-24 00:00:57.530 ,7,0,0.,1.2,0.,1.2,0.,1.2,,0.0,,0.0
1981-08-24 00:00:58.730 ,7,0,0.,1.2,0.,1.2,0.,1.2,,0.0,,0.0
1981-08-24 00:00:59.930 ,7,0,0.,1.2,0.,1.2,0.,1.2,,0.0,,0.0
1981-08-24 00:01:01.130 ,7,0,0.,1.2,0.,1.2,0.,1.2,,0.0,,0.0
1981-08-24 00:01:02.330 ,7,0,0.,1.2,0.,1.2,0.,1.2,,0.0,,0.0
1981-08-24 00:01:03.530 ,7,0,0.,1.2,0.,1.2,0.,1.2,,0.0,,0.0
1981-08-24 00:01:04.730 ,7,0,0.,1.2,0.,1.2,0.,1.2,,0.0,,0.0
1981-08-24 00:01:05.930 ,7,0,0.,1.2,0.,1.2,0.,1.2,,0.0,,0.0
1981-08-24 00:01:07.130 ,7,0,0.,1.2,0.,1.2,0.,1.2,,0.0,,0.0
1981-08-24 00:01:08.330 ,7,0,0.,1.2,0.,1.2,0.,1.2,,0.0,,0.0
1981-08-24 00:01:09.530 ,7,0,1.,1.2,1.,1.2,1.,1.2,,0.0,,0.0
1981-08-24 00:01:10.730 ,7,0,1.,1.2,1.,1.2,0.,1.2,,0.0,,0.0
1981-08-24 00:01:11.930 ,7,0,1.,1.2,0.,1.2,0.,1.2,,0.0,,0.0
1981-08-24 00:01:13.130 ,7,0,0.,1.2,0.,1.2,0.,1.2,,0.0,,0.0
1981-08-24 00:01:14.330 ,7,0,0.,1.2,0.,1.2,0.,1.2,,0.0,,0.0
1981-08-24 00:01:15.530 ,7,0,2.,1.2,1.,1.2,0.,1.2,,0.0,,0.0
1981-08-24 00:01:16.730 ,7,0,0.,1.2,0.,1.2,0.,1.2,,0.0,,0.0
1981-08-24 00:01:17.930 ,7,0,0.,1.2,0.,1.2,0.,1.2,,0.0,,0.0
1981-08-24 00:01:19.130 ,7,0,0.,1.2,0.,1.2,0.,1.2,,0.0,,0.0
1981-08-24 00:01:20.330 ,7,0,0.,1.2,0.,1.2,0.,1.2,,0.0,,0.0
1981-08-24 00:01:21.530 ,7,0,0.,1.2,0.,1.2,0.,1.2,,0.0,,0.0
1981-08-24 00:01:22.730 ,7,0,0.,1.2,0.,1.2,0.,1.2,,0.0,,0.0
1981-08-24 00:01:23.930 ,7,0,0.,1.2,0.,1.2,0.,1.2,,0.0,,0.0
1981-08-24 00:01:25.130 ,7,0,1.,1.2,1.,1.2,0.,1.2,,0.0,,0.0
1981-08-24 00:01:26.330 ,7,0,1.,1.2,1.,1.2,1.,1.2,,0.0,,0.0
1981-08-24 00:01:27.530 ,7,0,0.,1.2,0.,1.2,0.,1.2,,0.0,,0.0
1981-08-24 00:01:28.730 ,7,0,0.,1.2,0.,1.2,0.,1.2,,0.0,,0.0
1981-08-24 00:01:29.930 ,7,0,0.,1.2,0.,1.2,0.,1.2,,0.0,,0.0
1981-08-24 00:01:31.130 ,7,0,0.,1.2,0.,1.2,0.,1.2,,0.0,,0.0
1981-08-24 00:01:32.330 ,7,0,1.,1.2,1.,1.2,0.,1.2,,0.0,,0.0
1981-08-24 00:01:33.530 ,7,0,0.,1.2,0.,1.2,0.,1.2,,0.0,,0.0
1981-08-24 00:01:34.730 ,7,0,0.,1.2,0.,1.2,0.,1.2,,0.0,,0.0
1981-08-24 00:01:35.930 ,7,0,1.,1.2,1.,1.2,1.,1.2,,0.0,,0.0
1981-08-24 00:01:37.130 ,7,0,0.,1.2,0.,1.2,0.,1.2,,0.0,,0.0
1981-08-24 00:01:38.330 ,7,0,1.,1.2,1.,1.2,0.,1.2,,0.0,,0.0
1981-08-24 00:01:39.530 ,7,0,0.,1.2,0.,1.2,0.,1.2,,0.0,,0.0
1981-08-24 00:01:40.730 ,7,0,0.,1.2,0.,1.2,0.,1.2,,0.0,,0.0
1981-08-24 00:01:41.930 ,7,0,0.,1.2,0.,1.2,0.,1.2,,0.0,,0.0
1981-08-24 00:01:43.130 ,7,0,0.,1.2,0.,1.2,0.,1.2,,0.0,,0.0
1981-08-24 00:01:44.330 ,7,0,1.,1.2,0.,1.2,0.,1.2,,0.0,,0.0
1981-08-24 00:01:45.530 ,7,0,0.,1.2,0.,1.2,0.,1.2,,0.0,,0.0
1981-08-24 00:01:46.730 ,7,0,1.,1.2,0.,1.2,0.,1.2,,0.0,,0.0
1981-08-24 00:01:47.930 ,7,0,0.,1.2,0.,1.2,0.,1.2,,0.0,,0.0
1981-08-24 00:01:49.130 ,7,0,0.,1.2,0.,1.2,0.,1.2,,0.0,,0.0
1981-08-24 00:01:50.330 ,7,0,0.,1.2,0.,1.2,0.,1.2,,0.0,,0.0
1981-08-24 00:01:51.530 ,7,0,0.,1.2,0.,1.2,0.,1.2,,0.0,,0.0
1981-08-24 00:01:52.730 ,7,0,0.,1.2,0.,1.2,0.,1.2,,0.0,,0.0
1981-08-24 00:01:53.930 ,7,0,0.,1.2,0.,1.2,0.,1.2,,0.0,,0.0
1981-08-24 00:01:55.130 ,7,0,0.,1.2,0.,1.2,0.,1.2,,0.0,,0.0
1981-08-24 00:01:56.330 ,7,0,1.,1.2,0.,1.2,0.,1.2,,0.0,,0.0
1981-08-24 00:01:57.530 ,7,0,0.,1.2,0.,1.2,0.,1.2,,0.0,,0.0
1981-08-24 00:01:58.730 ,7,0,0.,1.2,0.,1.2,0.,1.2,,0.0,,0.0
1981-08-24 00:01:59.930 ,6,0,0.,1.2,0.,1.2,0.,1.2,,0.0,,0.0
1981-08-24 00:02:01.130 ,6,0,0.,1.2,0.,1.2,0.,1.2,,0.0,,0.0
1981-08-24 00:02:02.330 ,6,0,0.,1.2,0.,1.2,0.,1.2,,0.0,,0.0
1981-08-24 00:02:03.530 ,6,0,0.,1.2,0.,1.2,0.,1.2,,0.0,,0.0
1981-08-24 00:02:04.730 ,6,0,0.,1.2,0.,1.2,0.,1.2,,0.0,,0.0
1981-08-24 00:02:05.930 ,6,0,0.,1.2,0.,1.2,0.,1.2,,0.0,,0.0
1981-08-24 00:02:07.130 ,6,0,0.,1.2,0.,1.2,0.,1.2,,0.0,,0.0
1981-08-24 00:02:08.330 ,6,0,0.,1.2,0.,1.2,0.,1.2,,0.0,,0.0
1981-08-24 00:02:09.530 ,6,0,0.,1.2,0.,1.2,0.,1.2,,0.0,,0.0
1981-08-24 00:02:10.730 ,6,0,0.,1.2,0.,1.2,0.,1.2,,0.0,,0.0
1981-08-24 00:02:11.930 ,6,0,0.,1.2,0.,1.2,0.,1.2,,0.0,,0.0
1981-08-24 00:02:13.130 ,6,0,0.,1.2,0.,1.2,0.,1.2,,0.0,,0.0
1981-08-24 00:02:14.330 ,6,0,0.,1.2,0.,1.2,0.,1.2,,0.0,,0.0
1981-08-24 00:02:15.530 ,6,0,1.,1.2,0.,1.2,0.,1.2,,0.0,,0.0
1981-08-24 00:02:16.730 ,6,0,0.,1.2,0.,1.2,0.,1.2,,0.0,,0.0
1981-08-24 00:02:17.930 ,6,0,0.,1.2,0.,1.2,0.,1.2,,0.0,,0.0
1981-08-24 00:02:19.130 ,6,0,1.,1.2,1.,1.2,0.,1.2,,0.0,,0.0
1981-08-24 00:02:20.330 ,6,0,1.,1.2,0.,1.2,0.,1.2,,0.0,,0.0
1981-08-24 00:02:21.530 ,6,0,0.,1.2,0.,1.2,0.,1.2,,0.0,,0.0
1981-08-24 00:02:22.730 ,6,0,1.,1.2,1.,1.2,0.,1.2,,0.0,,0.0
1981-08-24 00:02:23.930 ,5,0,0.,1.2,0.,1.2,0.,1.2,,0.0,,0.0
1981-08-24 00:02:25.130 ,5,0,0.,1.2,0.,1.2,0.,1.2,,0.0,,0.0
1981-08-24 00:02:26.330 ,5,0,1.,1.2,0.,1.2,0.,1.2,,0.0,,0.0
1981-08-24 00:02:27.530 ,5,0,0.,1.2,0.,1.2,0.,1.2,,0.0,,0.0
1981-08-24 00:02:28.730 ,5,0,0.,1.2,0.,1.2,0.,1.2,,0.0,,0.0
1981-08-24 00:02:29.930 ,5,0,0.,1.2,0.,1.2,0.,1.2,,0.0,,0.0
1981-08-24 00:02:31.130 ,5,0,0.,1.2,0.,1.2,0.,1.2,,0.0,,0.0
1981-08-24 00:02:32.330 ,5,0,1.,1.2,1.,1.2,0.,1.2,,0.0,,0.0
1981-08-24 00:02:33.530 ,5,0,0.,1.2,0.,1.2,0.,1.2,,0.0,,0.0
1981-08-24 00:02:34.730 ,5,0,1.,1.2,0.,1.2,0.,1.2,,0.0,,0.0
1981-08-24 00:02:35.930 ,5,0,0.,1.2,0.,1.2,0.,1.2,,0.0,,0.0
1981-08-24 00:02:37.130 ,5,0,1.,1.2,1.,1.2,1.,1.2,,0.0,,0.0
1981-08-24 00:02:38.330 ,5,0,0.,1.2,0.,1.2,0.,1.2,,0.0,,0.0
1981-08-24 00:02:39.530 ,5,0,1.,1.2,1.,1.2,0.,1.2,,0.0,,0.0
1981-08-24 00:02:40.730 ,5,0,0.,1.2,0.,1.2,0.,1.2,,0.0,,0.0
1981-08-24 00:02:41.930 ,5,0,0.,1.2,0.,1.2,0.,1.2,,0.0,,0.0
1981-08-24 00:02:43.130 ,5,0,0.,1.2,0.,1.2,0.,1.2,,0.0,,0.0
1981-08-24 00:02:44.330 ,5,0,0.,1.2,0.,1.2,0.,1.2,,0.0,,0.0
1981-08-24 00:02:45.530 ,5,0,0.,1.2,0.,1.2,0.,1.2,,0.0,,0.0
1981-08-24 00:02:46.730 ,5,0,0.,1.2,0.,1.2,0.,1.2,,0.0,,0.0
1981-08-24 00:02:47.930 ,4,0,0.,1.2,0.,1.2,0.,1.2,,0.0,,0.0
1981-08-24 00:02:49.130 ,4,0,0.,1.2,0.,1.2,0.,1.2,,0.0,,0.0
1981-08-24 00:02:50.330 ,4,0,1.,1.2,0.,1.2,0.,1.2,,0.0,,0.0
1981-08-24 00:02:51.530 ,4,0,0.,1.2,0.,1.2,0.,1.2,,0.0,,0.0
1981-08-24 00:02:52.730 ,4,0,0.,1.2,0.,1.2,0.,1.2,,0.0,,0.0
1981-08-24 00:02:53.930 ,4,0,0.,1.2,0.,1.2,0.,1.2,,0.0,,0.0
1981-08-24 00:02:55.130 ,4,0,0.,1.2,0.,1.2,0.,1.2,,0.0,,0.0
1981-08-24 00:02:56.330 ,4,0,0.,1.2,0.,1.2,0.,1.2,,0.0,,0.0
1981-08-24 00:02:57.530 ,4,0,1.,1.2,0.,1.2,0.,1.2,,0.0,,0.0
1981-08-24 00:02:58.730 ,4,0,0.,1.2,0.,1.2,0.,1.2,,0.0,,0.0
1981-08-24 00:02:59.930 ,4,0,0.,1.2,0.,1.2,0.,1.2,,0.0,,0.0
1981-08-24 00:03:01.130 ,4,0,0.,1.2,0.,1.2,0.,1.2,,0.0,,0.0
1981-08-24 00:03:02.330 ,4,0,0.,1.2,0.,1.2,0.,1.2,,0.0,,0.0
1981-08-24 00:03:03.530 ,4,0,1.,1.2,0.,1.2,0.,1.2,,0.0,,0.0
1981-08-24 00:03:04.730 ,4,0,0.,1.2,0.,1.2,0.,1.2,,0.0,,0.0
1981-08-24 00:03:05.930 ,4,0,1.,1.2,0.,1.2,0.,1.2,,0.0,,0.0
1981-08-24 00:03:07.130 ,4,0,0.,1.2,0.,1.2,0.,1.2,,0.0,,0.0
1981-08-24 00:03:08.330 ,4,0,1.,1.2,0.,1.2,0.,1.2,,0.0,,0.0
1981-08-24 00:03:09.530 ,4,0,0.,1.2,0.,1.2,0.,1.2,,0.0,,0.0
1981-08-24 00:03:10.730 ,4,0,0.,1.2,0.,1.2,0.,1.2,,0.0,,0.0
1981-08-24 00:03:11.930 ,3,0,0.,1.2,0.,1.2,0.,1.2,,0.0,,0.0
1981-08-24 00:03:13.130 ,3,0,0.,1.2,0.,1.2,0.,1.2,,0.0,,0.0
1981-08-24 00:03:14.330 ,3,0,1.,1.2,0.,1.2,0.,1.2,,0.0,,0.0
1981-08-24 00:03:15.530 ,3,0,0.,1.2,0.,1.2,0.,1.2,,0.0,,0.0
1981-08-24 00:03:16.730 ,3,0,0.,1.2,0.,1.2,0.,1.2,,0.0,,0.0
1981-08-24 00:03:17.930 ,3,0,0.,1.2,0.,1.2,0.,1.2,,0.0,,0.0
1981-08-24 00:03:19.130 ,3,0,0.,1.2,0.,1.2,0.,1.2,,0.0,,0.0
1981-08-24 00:03:20.330 ,3,0,0.,1.2,0.,1.2,0.,1.2,,0.0,,0.0
1981-08-24 00:03:21.530 ,3,0,0.,1.2,0.,1.2,0.,1.2,,0.0,,0.0
1981-08-24 00:03:22.730 ,3,0,0.,1.2,0.,1.2,0.,1.2,,0.0,,0.0
1981-08-24 00:03:23.930 ,3,0,1.,1.2,0.,1.2,0.,1.2,,0.0,,0.0
1981-08-24 00:03:25.130 ,3,0,0.,1.2,0.,1.2,0.,1.2,,0.0,,0.0
1981-08-24 00:03:26.330 ,3,0,0.,1.2,0.,1.2,0.,1.2,,0.0,,0.0
1981-08-24 00:03:27.530 ,3,0,0.,1.2,0.,1.2,0.,1.2,,0.0,,0.0
1981-08-24 00:03:28.730 ,3,0,0.,1.2,0.,1.2,0.,1.2,,0.0,,0.0
1981-08-24 00:03:29.930 ,3,0,1.,1.2,1.,1.2,0.,1.2,,0.0,,0.0
1981-08-24 00:03:31.130 ,3,0,0.,1.2,0.,1.2,0.,1.2,,0.0,,0.0
1981-08-24 00:03:32.330 ,3,0,0.,1.2,0.,1.2,0.,1.2,,0.0,,0.0
1981-08-24 00:03:33.530 ,3,0,0.,1.2,0.,1.2,0.,1.2,,0.0,,0.0
1981-08-24 00:03:34.730 ,3,0,0.,1.2,0.,1.2,0.,1.2,,0.0,,0.0
1981-08-24 00:03:35.930 ,2,0,0.,1.2,0.,1.2,0.,1.2,,0.0,,0.0
1981-08-24 00:03:37.130 ,2,0,1.,1.2,0.,1.2,0.,1.2,,0.0,,0.0
1981-08-24 00:03:38.330 ,2,0,0.,1.2,0.,1.2,0.,1.2,,0.0,,0.0
1981-08-24 00:03:39.530 ,2,0,0.,1.2,0.,1.2,0.,1.2,,0.0,,0.0
1981-08-24 00:03:40.730 ,2,0,1.,1.2,1.,1.2,0.,1.2,,0.0,,0.0
1981-08-24 00:03:41.930 ,2,0,2.,1.2,1.,1.2,0.,1.2,,0.0,,0.0
1981-08-24 00:03:43.130 ,2,0,0.,1.2,0.,1.2,0.,1.2,,0.0,,0.0
1981-08-24 00:03:44.330 ,2,0,1.,1.2,1.,1.2,0.,1.2,,0.0,,0.0
1981-08-24 00:03:45.530 ,2,0,0.,1.2,0.,1.2,0.,1.2,,0.0,,0.0
1981-08-24 00:03:46.730 ,2,0,0.,1.2,0.,1.2,0.,1.2,,0.0,,0.0
1981-08-24 00:03:47.930 ,2,0,0.,1.2,0.,1.2,0.,1.2,,0.0,,0.0
1981-08-24 00:03:49.130 ,2,0,0.,1.2,0.,1.2,0.,1.2,,0.0,,0.0
1981-08-24 00:03:50.330 ,2,0,0.,1.2,0.,1.2,0.,1.2,,0.0,,0.0
1981-08-24 00:03:51.530 ,2,0,0.,1.2,0.,1.2,0.,1.2,,0.0,,0.0
1981-08-24 00:03:52.730 ,2,0,0.,1.2,0.,1.2,0.,1.2,,0.0,,0.0
1981-08-24 00:03:53.930 ,2,0,0.,1.2,0.,1.2,0.,1.2,,0.0,,0.0
1981-08-24 00:03:55.130 ,2,0,0.,1.2,0.,1.2,0.,1.2,,0.0,,0.0
1981-08-24 00:03:56.330 ,2,0,0.,1.2,0.,1.2,0.,1.2,,0.0,,0.0
1981-08-24 00:03:57.530 ,2,0,0.,1.2,0.,1.2,0.,1.2,,0.0,,0.0
1981-08-24 00:03:58.730 ,2,0,0.,1.2,0.,1.2,0.,1.2,,0.0,,0.0
1981-08-24 00:03:59.930 ,1,0,0.,1.2,0.,1.2,0.,1.2,,0.0,,0.0
1981-08-24 00:04:01.130 ,1,0,0.,1.2,0.,1.2,0.,1.2,,0.0,,0.0
1981-08-24 00:04:02.330 ,1,0,0.,1.2,0.,1.2,0.,1.2,,0.0,,0.0
1981-08-24 00:04:03.530 ,1,0,0.,1.2,0.,1.2,0.,1.2,,0.0,,0.0
1981-08-24 00:04:04.730 ,1,0,0.,1.2,0.,1.2,0.,1.2,,0.0,,0.0
1981-08-24 00:04:05.930 ,1,0,0.,1.2,0.,1.2,0.,1.2,,0.0,,0.0
1981-08-24 00:04:07.130 ,1,0,0.,1.2,0.,1.2,0.,1.2,,0.0,,0.0
1981-08-24 00:04:08.330 ,1,0,0.,1.2,0.,1.2,0.,1.2,,0.0,,0.0
1981-08-24 00:04:09.530 ,1,0,0.,1.2,0.,1.2,0.,1.2,,0.0,,0.0
1981-08-24 00:04:10.730 ,1,0,0.,1.2,0.,1.2,0.,1.2,,0.0,,0.0
1981-08-24 00:04:11.930 ,1,0,0.,1.2,0.,1.2,0.,1.2,,0.0,,0.0
1981-08-24 00:04:13.130 ,1,0,0.,1.2,0.,1.2,0.,1.2,,0.0,,0.0
1981-08-24 00:04:14.330 ,1,0,0.,1.2,0.,1.2,0.,1.2,,0.0,,0.0
1981-08-24 00:04:15.530 ,1,0,0.,1.2,0.,1.2,0.,1.2,,0.0,,0.0
1981-08-24 00:04:16.730 ,1,0,0.,1.2,0.,1.2,0.,1.2,,0.0,,0.0
1981-08-24 00:04:17.930 ,1,0,0.,1.2,0.,1.2,0.,1.2,,0.0,,0.0
1981-08-24 00:04:19.130 ,1,0,0.,1.2,0.,1.2,0.,1.2,,0.0,,0.0
1981-08-24 00:04:20.330 ,1,0,0.,1.2,0.,1.2,0.,1.2,,0.0,,0.0
1981-08-24 00:04:21.530 ,1,0,0.,1.2,0.,1.2,0.,1.2,,0.0,,0.0
1981-08-24 00:04:22.730 ,1,0,0.,1.2,0.,1.2,0.,1.2,,0.0,,0.0
1981-08-24 00:04:23.930 ,0,0,0.,1.2,0.,1.2,0.,1.2,,0.0,,0.0
1981-08-24 00:04:25.130 ,0,0,0.,1.2,0.,1.2,0.,1.2,,0.0,,0.0
1981-08-24 00:04:26.330 ,0,0,0.,1.2,0.,1.2,0.,1.2,,0.0,,0.0
1981-08-24 00:04:27.530 ,0,0,1.,1.2,1.,1.2,1.,1.2,,0.0,,0.0
1981-08-24 00:04:28.730 ,0,0,0.,1.2,0.,1.2,0.,1.2,,0.0,,0.0
1981-08-24 00:04:29.930 ,0,0,0.,1.2,0.,1.2,0.,1.2,,0.0,,0.0
1981-08-24 00:04:31.130 ,0,0,1.,1.2,1.,1.2,0.,1.2,,0.0,,0.0
1981-08-24 00:04:32.330 ,0,0,0.,1.2,0.,1.2,0.,1.2,,0.0,,0.0
1981-08-24 00:04:33.530 ,0,0,0.,1.2,0.,1.2,0.,1.2,,0.0,,0.0
1981-08-24 00:04:34.730 ,0,0,0.,1.2,0.,1.2,0.,1.2,,0.0,,0.0
1981-08-24 00:04:35.930 ,0,0,0.,1.2,0.,1.2,0.,1.2,,0.0,,0.0
1981-08-24 00:04:37.130 ,0,0,0.,1.2,0.,1.2,0.,1.2,,0.0,,0.0
1981-08-24 00:04:38.330 ,0,0,0.,1.2,0.,1.2,0.,1.2,,0.0,,0.0
1981-08-24 00:04:39.530 ,0,0,1.,1.2,1.,1.2,0.,1.2,,0.0,,0.0
1981-08-24 00:04:40.730 ,0,0,0.,1.2,0.,1.2,0.,1.2,,0.0,,0.0
1981-08-24 00:04:41.930 ,0,0,0.,1.2,0.,1.2,0.,1.2,,0.0,,0.0
1981-08-24 00:04:43.130 ,0,0,1.,1.2,0.,1.2,0.,1.2,,0.0,,0.0
1981-08-24 00:04:44.330 ,0,0,0.,1.2,0.,1.2,0.,1.2,,0.0,,0.0
1981-08-24 00:04:45.530 ,0,0,0.,1.2,0.,1.2,0.,1.2,,0.0,,0.0
1981-08-24 00:04:46.730 ,0,0,0.,1.2,0.,1.2,0.,1.2,,0.0,,0.0
1981-08-24 00:04:47.930 ,0,0,0.,1.2,0.,1.2,0.,1.2,,0.0,,0.0
1981-08-24 00:04:49.130 ,0,0,0.,1.2,0.,1.2,0.,1.2,,0.0,,0.0
1981-08-24 00:04:50.330 ,0,0,0.,1.2,0.,1.2,0.,1.2,,0.0,,0.0
1981-08-24 00:04:51.530 ,0,0,0.,1.2,0.,1.2,0.,1.2,,0.0,,0.0
1981-08-24 00:04:52.730 ,0,0,0.,1.2,0.,1.2,0.,1.2,,0.0,,0.0
1981-08-24 00:04:53.930 ,0,0,0.,1.2,0.,1.2,0.,1.2,,0.0,,0.0
1981-08-24 00:04:55.130 ,0,0,0.,1.2,0.,1.2,0.,1.2,,0.0,,0.0
1981-08-24 00:04:56.330 ,0,0,0.,1.2,0.,1.2,0.,1.2,,0.0,,0.0
1981-08-24 00:04:57.530 ,0,0,1.,1.2,1.,1.2,0.,1.2,,0.0,,0.0
1981-08-24 00:04:58.730 ,0,0,0.,1.2,0.,1.2,0.,1.2,,0.0,,0.0
1981-08-24 00:04:59.930 ,0,0,0.,1.2,0.,1.2,0.,1.2,,0.0,,0.0
1981-08-24 00:05:01.130 ,0,0,0.,1.2,0.,1.2,0.,1.2,,0.0,,0.0
1981-08-24 00:05:02.330 ,0,0,0.,1.2,0.,1.2,0.,1.2,,0.0,,0.0
1981-08-24 00:05:03.530 ,0,0,0.,1.2,0.,1.2,0.,1.2,,0.0,,0.0
1981-08-24 00:05:04.730 ,0,0,0.,1.2,0.,1.2,0.,1.2,,0.0,,0.0
1981-08-24 00:05:05.930 ,0,0,0.,1.2,0.,1.2,0.,1.2,,0.0,,0.0
1981-08-24 00:05:07.130 ,0,0,0.,1.2,0.,1.2,0.,1.2,,0.0,,0.0
1981-08-24 00:05:08.330 ,0,0,0.,1.2,0.,1.2,0.,1.2,,0.0,,0.0
1981-08-24 00:05:09.530 ,0,0,0.,1.2,0.,1.2,0.,1.2,,0.0,,0.0
1981-08-24 00:05:10.730 ,0,0,0.,1.2,0.,1.2,0.,1.2,,0.0,,0.0
1981-08-24 00:05:11.930 ,1,0,0.,1.2,0.,1.2,0.,1.2,,0.0,,0.0
1981-08-24 00:05:13.130 ,1,0,0.,1.2,0.,1.2,0.,1.2,,0.0,,0.0
1981-08-24 00:05:14.330 ,1,0,1.,1.2,0.,1.2,0.,1.2,,0.0,,0.0
1981-08-24 00:05:15.530 ,1,0,0.,1.2,0.,1.2,0.,1.2,,0.0,,0.0
1981-08-24 00:05:16.730 ,1,0,0.,1.2,0.,1.2,0.,1.2,,0.0,,0.0
1981-08-24 00:05:17.930 ,1,0,0.,1.2,0.,1.2,0.,1.2,,0.0,,0.0
1981-08-24 00:05:19.130 ,1,0,0.,1.2,0.,1.2,0.,1.2,,0.0,,0.0
1981-08-24 00:05:20.330 ,1,0,0.,1.2,0.,1.2,0.,1.2,,0.0,,0.0
1981-08-24 00:05:21.530 ,1,0,0.,1.2,0.,1.2,0.,1.2,,0.0,,0.0
1981-08-24 00:05:22.730 ,1,0,0.,1.2,0.,1.2,0.,1.2,,0.0,,0.0
1981-08-24 00:05:23.930 ,1,0,0.,1.2,0.,1.2,0.,1.2,,0.0,,0.0
1981-08-24 00:05:25.130 ,1,0,0.,1.2,0.,1.2,0.,1.2,,0.0,,0.0
1981-08-24 00:05:26.330 ,1,0,0.,1.2,0.,1.2,0.,1.2,,0.0,,0.0
1981-08-24 00:05:27.530 ,1,0,0.,1.2,0.,1.2,0.,1.2,,0.0,,0.0
1981-08-24 00:05:28.730 ,1,0,0.,1.2,0.,1.2,0.,1.2,,0.0,,0.0
1981-08-24 00:05:29.930 ,1,0,1.,1.2,1.,1.2,0.,1.2,,0.0,,0.0
1981-08-24 00:05:31.130 ,1,0,1.,1.2,0.,1.2,0.,1.2,,0.0,,0.0
1981-08-24 00:05:32.330 ,1,0,0.,1.2,0.,1.2,0.,1.2,,0.0,,0.0
1981-08-24 00:05:33.530 ,1,0,0.,1.2,0.,1.2,0.,1.2,,0.0,,0.0
1981-08-24 00:05:34.730 ,1,0,0.,1.2,0.,1.2,0.,1.2,,0.0,,0.0
1981-08-24 00:05:35.930 ,2,0,1.,1.2,1.,1.2,0.,1.2,,0.0,,0.0
1981-08-24 00:05:37.130 ,2,0,1.,1.2,0.,1.2,0.,1.2,,0.0,,0.0
1981-08-24 00:05:38.330 ,2,0,0.,1.2,0.,1.2,0.,1.2,,0.0,,0.0
1981-08-24 00:05:39.530 ,2,0,1.,1.2,0.,1.2,0.,1.2,,0.0,,0.0
1981-08-24 00:05:40.730 ,2,0,0.,1.2,0.,1.2,0.,1.2,,0.0,,0.0
1981-08-24 00:05:41.930 ,2,0,1.,1.2,0.,1.2,0.,1.2,,0.0,,0.0
1981-08-24 00:05:43.130 ,2,0,0.,1.2,0.,1.2,0.,1.2,,0.0,,0.0
1981-08-24 00:05:44.330 ,2,0,0.,1.2,0.,1.2,0.,1.2,,0.0,,0.0
1981-08-24 00:05:45.530 ,2,0,0.,1.2,0.,1.2,0.,1.2,,0.0,,0.0
1981-08-24 00:05:46.730 ,2,0,0.,1.2,0.,1.2,0.,1.2,,0.0,,0.0
1981-08-24 00:05:47.930 ,2,0,0.,1.2,0.,1.2,0.,1.2,,0.0,,0.0
1981-08-24 00:05:49.130 ,2,0,0.,1.2,0.,1.2,0.,1.2,,0.0,,0.0
1981-08-24 00:05:50.330 ,2,0,1.,1.2,1.,1.2,1.,1.2,,0.0,,0.0
1981-08-24 00:05:51.530 ,2,0,1.,1.2,1.,1.2,0.,1.2,,0.0,,0.0
1981-08-24 00:05:52.730 ,2,0,1.,1.2,1.,1.2,0.,1.2,,0.0,,0.0
1981-08-24 00:05:53.930 ,2,0,0.,1.2,0.,1.2,0.,1.2,,0.0,,0.0
1981-08-24 00:05:55.130 ,2,0,0.,1.2,0.,1.2,0.,1.2,,0.0,,0.0
1981-08-24 00:05:56.330 ,2,0,0.,1.2,0.,1.2,0.,1.2,,0.0,,0.0
1981-08-24 00:05:57.530 ,2,0,0.,1.2,0.,1.2,0.,1.2,,0.0,,0.0
1981-08-24 00:05:58.730 ,2,0,0.,1.2,0.,1.2,0.,1.2,,0.0,,0.0
1981-08-24 00:05:59.930 ,3,0,0.,1.2,0.,1.2,0.,1.2,,0.0,,0.0
1981-08-24 00:06:01.130 ,3,0,0.,1.2,0.,1.2,0.,1.2,,0.0,,0.0
1981-08-24 00:06:02.330 ,3,0,1.,1.2,0.,1.2,0.,1.2,,0.0,,0.0
1981-08-24 00:06:03.530 ,3,0,0.,1.2,0.,1.2,0.,1.2,,0.0,,0.0
1981-08-24 00:06:04.730 ,3,0,1.,1.2,0.,1.2,0.,1.2,,0.0,,0.0
1981-08-24 00:06:05.930 ,3,0,0.,1.2,0.,1.2,0.,1.2,,0.0,,0.0
1981-08-24 00:06:07.130 ,3,0,0.,1.2,0.,1.2,0.,1.2,,0.0,,0.0
1981-08-24 00:06:08.330 ,3,0,0.,1.2,0.,1.2,0.,1.2,,0.0,,0.0
1981-08-24 00:06:09.530 ,3,0,0.,1.2,0.,1.2,0.,1.2,,0.0,,0.0
1981-08-24 00:06:10.730 ,3,0,0.,1.2,0.,1.2,0.,1.2,,0.0,,0.0
1981-08-24 00:06:11.930 ,3,0,0.,1.2,0.,1.2,0.,1.2,,0.0,,0.0
1981-08-24 00:06:13.130 ,3,0,0.,1.2,0.,1.2,0.,1.2,,0.0,,0.0
1981-08-24 00:06:14.330 ,3,0,0.,1.2,0.,1.2,0.,1.2,,0.0,,0.0
1981-08-24 00:06:15.530 ,3,0,1.,1.2,0.,1.2,0.,1.2,,0.0,,0.0
1981-08-24 00:06:16.730 ,3,0,1.,1.2,0.,1.2,0.,1.2,,0.0,,0.0
1981-08-24 00:06:17.930 ,3,0,0.,1.2,0.,1.2,0.,1.2,,0.0,,0.0
1981-08-24 00:06:19.130 ,3,0,0.,1.2,0.,1.2,0.,1.2,,0.0,,0.0
1981-08-24 00:06:20.330 ,3,0,0.,1.2,0.,1.2,0.,1.2,,0.0,,0.0
1981-08-24 00:06:21.530 ,3,0,0.,1.2,0.,1.2,0.,1.2,,0.0,,0.0
1981-08-24 00:06:22.730 ,3,0,0.,1.2,0.,1.2,0.,1.2,,0.0,,0.0
1981-08-24 00:06:23.930 ,4,0,0.,1.2,0.,1.2,0.,1.2,,0.0,,0.0
1981-08-24 00:06:25.130 ,4,0,1.,1.2,0.,1.2,0.,1.2,,0.0,,0.0
1981-08-24 00:06:26.330 ,4,0,0.,1.2,0.,1.2,0.,1.2,,0.0,,0.0
1981-08-24 00:06:27.530 ,4,0,2.,1.2,2.,1.2,1.,1.2,,0.0,,0.0
1981-08-24 00:06:28.730 ,4,0,0.,1.2,0.,1.2,0.,1.2,,0.0,,0.0
1981-08-24 00:06:29.930 ,4,0,1.,1.2,0.,1.2,0.,1.2,,0.0,,0.0
1981-08-24 00:06:31.130 ,4,0,0.,1.2,0.,1.2,0.,1.2,,0.0,,0.0
1981-08-24 00:06:32.330 ,4,0,0.,1.2,0.,1.2,0.,1.2,,0.0,,0.0
1981-08-24 00:06:33.530 ,4,0,0.,1.2,0.,1.2,0.,1.2,,0.0,,0.0
1981-08-24 00:06:34.730 ,4,0,0.,1.2,0.,1.2,0.,1.2,,0.0,,0.0
1981-08-24 00:06:35.930 ,4,0,0.,1.2,0.,1.2,0.,1.2,,0.0,,0.0
1981-08-24 00:06:37.130 ,4,0,0.,1.2,0.,1.2,0.,1.2,,0.0,,0.0
1981-08-24 00:06:38.330 ,4,0,1.,1.2,1.,1.2,1.,1.2,,0.0,,0.0
1981-08-24 00:06:39.530 ,4,0,0.,1.2,0.,1.2,0.,1.2,,0.0,,0.0
1981-08-24 00:06:40.730 ,4,0,0.,1.2,0.,1.2,0.,1.2,,0.0,,0.0
1981-08-24 00:06:41.930 ,4,0,0.,1.2,0.,1.2,0.,1.2,,0.0,,0.0
1981-08-24 00:06:43.130 ,4,0,0.,1.2,0.,1.2,0.,1.2,,0.0,,0.0
1981-08-24 00:06:44.330 ,4,0,0.,1.2,0.,1.2,0.,1.2,,0.0,,0.0
1981-08-24 00:06:45.530 ,4,0,0.,1.2,0.,1.2,0.,1.2,,0.0,,0.0
1981-08-24 00:06:46.730 ,4,0,0.,1.2,0.,1.2,0.,1.2,,0.0,,0.0
1981-08-24 00:06:47.930 ,5,0,0.,1.2,0.,1.2,0.,1.2,,0.0,,0.0
1981-08-24 00:06:49.130 ,5,0,1.,1.2,0.,1.2,0.,1.2,,0.0,,0.0
1981-08-24 00:06:50.330 ,5,0,0.,1.2,0.,1.2,0.,1.2,,0.0,,0.0
1981-08-24 00:06:51.530 ,5,0,0.,1.2,0.,1.2,0.,1.2,,0.0,,0.0
1981-08-24 00:06:52.730 ,5,0,1.,1.2,0.,1.2,0.,1.2,,0.0,,0.0
1981-08-24 00:06:53.930 ,5,0,0.,1.2,0.,1.2,0.,1.2,,0.0,,0.0
1981-08-24 00:06:55.130 ,5,0,0.,1.2,0.,1.2,0.,1.2,,0.0,,0.0
1981-08-24 00:06:56.330 ,5,0,0.,1.2,0.,1.2,0.,1.2,,0.0,,0.0
1981-08-24 00:06:57.530 ,5,0,0.,1.2,0.,1.2,0.,1.2,,0.0,,0.0
1981-08-24 00:06:58.730 ,5,0,0.,1.2,0.,1.2,0.,1.2,,0.0,,0.0
1981-08-24 00:06:59.930 ,5,0,0.,1.2,0.,1.2,0.,1.2,,0.0,,0.0
1981-08-24 00:07:01.130 ,5,0,0.,1.2,0.,1.2,0.,1.2,,0.0,,0.0
1981-08-24 00:07:02.330 ,5,0,0.,1.2,0.,1.2,0.,1.2,,0.0,,0.0
1981-08-24 00:07:03.530 ,5,0,0.,1.2,0.,1.2,0.,1.2,,0.0,,0.0
1981-08-24 00:07:04.730 ,5,0,1.,1.2,1.,1.2,0.,1.2,,0.0,,0.0
1981-08-24 00:07:05.930 ,5,0,0.,1.2,0.,1.2,0.,1.2,,0.0,,0.0
1981-08-24 00:07:07.130 ,5,0,0.,1.2,0.,1.2,0.,1.2,,0.0,,0.0
1981-08-24 00:07:08.330 ,5,0,0.,1.2,0.,1.2,0.,1.2,,0.0,,0.0
1981-08-24 00:07:09.530 ,5,0,0.,1.2,0.,1.2,0.,1.2,,0.0,,0.0
1981-08-24 00:07:10.730 ,5,0,0.,1.2,0.,1.2,0.,1.2,,0.0,,0.0
1981-08-24 00:07:11.930 ,6,0,1.,1.2,0.,1.2,0.,1.2,,0.0,,0.0
1981-08-24 00:07:13.130 ,6,0,0.,1.2,0.,1.2,0.,1.2,,0.0,,0.0
1981-08-24 00:07:14.330 ,6,0,0.,1.2,0.,1.2,0.,1.2,,0.0,,0.0
1981-08-24 00:07:15.530 ,6,0,0.,1.2,0.,1.2,0.,1.2,,0.0,,0.0
1981-08-24 00:07:16.730 ,6,0,0.,1.2,0.,1.2,0.,1.2,,0.0,,0.0
1981-08-24 00:07:17.930 ,6,0,0.,1.2,0.,1.2,0.,1.2,,0.0,,0.0
1981-08-24 00:07:19.130 ,6,0,0.,1.2,0.,1.2,0.,1.2,,0.0,,0.0
1981-08-24 00:07:20.330 ,6,0,0.,1.2,0.,1.2,0.,1.2,,0.0,,0.0
1981-08-24 00:07:21.530 ,6,0,1.,1.2,0.,1.2,0.,1.2,,0.0,,0.0
1981-08-24 00:07:22.730 ,6,0,0.,1.2,0.,1.2,0.,1.2,,0.0,,0.0
1981-08-24 00:07:23.930 ,6,0,0.,1.2,0.,1.2,0.,1.2,,0.0,,0.0
1981-08-24 00:07:25.130 ,6,0,0.,1.2,0.,1.2,0.,1.2,,0.0,,0.0
1981-08-24 00:07:26.330 ,6,0,0.,1.2,0.,1.2,0.,1.2,,0.0,,0.0
1981-08-24 00:07:27.530 ,6,0,0.,1.2,0.,1.2,0.,1.2,,0.0,,0.0
1981-08-24 00:07:28.730 ,6,0,1.,1.2,0.,1.2,0.,1.2,,0.0,,0.0
1981-08-24 00:07:29.930 ,6,0,0.,1.2,0.,1.2,0.,1.2,,0.0,,0.0
1981-08-24 00:07:31.130 ,6,0,0.,1.2,0.,1.2,0.,1.2,,0.0,,0.0
1981-08-24 00:07:32.330 ,6,0,0.,1.2,0.,1.2,0.,1.2,,0.0,,0.0
1981-08-24 00:07:33.530 ,6,0,1.,1.2,0.,1.2,0.,1.2,,0.0,,0.0
1981-08-24 00:07:34.730 ,6,0,1.,1.2,1.,1.2,0.,1.2,,0.0,,0.0
1981-08-24 00:07:35.930 ,7,0,0.,1.2,0.,1.2,0.,1.2,,0.0,,0.0
1981-08-24 00:07:37.130 ,7,0,0.,1.2,0.,1.2,0.,1.2,,0.0,,0.0
1981-08-24 00:07:38.330 ,7,0,1.,1.2,1.,1.2,0.,1.2,,0.0,,0.0
1981-08-24 00:07:39.530 ,7,0,0.,1.2,0.,1.2,0.,1.2,,0.0,,0.0
1981-08-24 00:07:40.730 ,7,0,1.,1.2,1.,1.2,0.,1.2,,0.0,,0.0
1981-08-24 00:07:41.930 ,7,0,1.,1.2,0.,1.2,0.,1.2,,0.0,,0.0
1981-08-24 00:07:43.130 ,7,0,1.,1.2,0.,1.2,0.,1.2,,0.0,,0.0
1981-08-24 00:07:44.330 ,7,0,0.,1.2,0.,1.2,0.,1.2,,0.0,,0.0
1981-08-24 00:07:45.530 ,7,0,0.,1.2,0.,1.2,0.,1.2,,0.0,,0.0
1981-08-24 00:07:46.730 ,7,0,0.,1.2,0.,1.2,0.,1.2,,0.0,,0.0
1981-08-24 00:07:47.930 ,7,0,0.,1.2,0.,1.2,0.,1.2,,0.0,,0.0
1981-08-24 00:07:49.130 ,7,0,0.,1.2,0.,1.2,0.,1.2,,0.0,,0.0
1981-08-24 00:07:50.330 ,7,0,0.,1.2,0.,1.2,0.,1.2,,0.0,,0.0
1981-08-24 00:07:51.530 ,7,0,0.,1.2,0.,1.2,0.,1.2,,0.0,,0.0
1981-08-24 00:07:52.730 ,7,0,0.,1.2,0.,1.2,0.,1.2,,0.0,,0.0
1981-08-24 00:07:53.930 ,7,0,0.,1.2,0.,1.2,0.,1.2,,0.0,,0.0
1981-08-24 00:07:55.130 ,7,0,0.,1.2,0.,1.2,0.,1.2,,0.0,,0.0
1981-08-24 00:07:56.330 ,7,0,0.,1.2,0.,1.2,0.,1.2,,0.0,,0.0
1981-08-24 00:07:57.530 ,7,0,0.,1.2,0.,1.2,0.,1.2,,0.0,,0.0
1981-08-24 00:07:58.730 ,7,0,0.,1.2,0.,1.2,0.,1.2,,0.0,,0.0
1981-08-24 00:07:59.930 ,7,0,0.,1.2,0.,1.2,0.,1.2,,0.0,,0.0
1981-08-24 00:08:01.130 ,7,0,0.,1.2,0.,1.2,0.,1.2,,0.0,,0.0
1981-08-24 00:08:02.330 ,7,0,0.,1.2,0.,1.2,0.,1.2,,0.0,,0.0
1981-08-24 00:08:03.530 ,7,0,0.,1.2,0.,1.2,0.,1.2,,0.0,,0.0
1981-08-24 00:08:04.730 ,7,0,0.,1.2,0.,1.2,0.,1.2,,0.0,,0.0
1981-08-24 00:08:05.930 ,7,0,1.,1.2,1.,1.2,1.,1.2,,0.0,,0.0
1981-08-24 00:08:07.130 ,7,0,0.,1.2,0.,1.2,0.,1.2,,0.0,,0.0
1981-08-24 00:08:08.330 ,7,0,0.,1.2,0.,1.2,0.,1.2,,0.0,,0.0
1981-08-24 00:08:09.530 ,7,0,0.,1.2,0.,1.2,0.,1.2,,0.0,,0.0
1981-08-24 00:08:10.730 ,7,0,0.,1.2,0.,1.2,0.,1.2,,0.0,,0.0
1981-08-24 00:08:11.930 ,7,0,1.,1.2,0.,1.2,0.,1.2,,0.0,,0.0
1981-08-24 00:08:13.130 ,7,0,0.,1.2,0.,1.2,0.,1.2,,0.0,,0.0